User: anonymous   Login
Location: eljas
(40.1958°N, 6.8661°W)
Time: 14:42:45
(UTC+01:00)
Language:

Okean O Rocket - Orbit

View from above orbital plane
View from above orbital plane
View from above satellite
View from above satellite

Ground track
Ground track

The orbit data is extracted from the following two-line orbital elements,

1 25861U 99039B   14302.84261934  .00000628  00000-0  94443-4 0  7777
2 25861 097.9681 260.0963 0014373 303.0439 086.9358 14.77838497823752
Epoch (UTC): 29 October 2014 20:13:22
Eccentricity: 0.0014373
inclination: 97.9681°
perigee height: 626 km
apogee height: 646 km
right ascension of ascending node: 260.0963°
argument of perigee: 303.0439°
revolutions per day: 14.77838497
mean anomaly at epoch: 86.9358°
orbit number at epoch: 82375

The dashed part of the orbit path shows where the satellite is in the earth's shadow,  

DLR